DF2AP-13 Weather Reports


time (UTC)temp
F
wind
direction
speed
knots
gust
knots
rain 1hr
in
rain 24hr
in
rain mn
in
humidity
%
barometer
mb
20260507081302 50 0.0 0.0 0.00 0.00 0.00 10 1013.7
20260507075306 49 0.0 0.0 0.00 0.00 0.00 10 1013.5
20260507074302 49 0.0 0.0 0.00 0.00 0.00 10 1013.4
20260507073302 49 0.0 0.0 0.00 0.00 0.00 10 1013.3
20260507072306 49 0.0 0.0 0.00 0.00 0.00 10 1013.2
20260507071302 49 0.0 0.0 0.00 0.00 0.00 10 1013.1
20260507070302 49 0.0 0.0 0.00 0.00 0.00 10 1013.0
20260507065306 49 0.0 0.0 0.00 0.00 0.00 10 1012.9
20260507064306 50 0.0 0.0 0.00 0.00 0.00 10 1012.8
20260507063304 49 0.0 0.0 0.00 0.00 0.00 10 1012.7
20260507062305 49 0.0 0.0 0.00 0.00 0.00 10 1012.6
20260507061302 49 0.0 0.0 0.00 0.00 0.00 10 1012.5
20260507060302 49 0.0 0.0 0.00 0.00 0.00 10 1012.4
20260507054302 49 0.0 0.0 0.00 0.00 0.00 10 1012.2
20260507053302 49 0.0 0.0 0.00 0.00 0.00 10 1012.0
20260507052306 49 0.0 0.0 0.00 0.00 0.00 10 1012.0
20260507051307 50 0.0 0.0 0.00 0.00 0.00 10 1011.9
20260507050308 50 0.0 0.0 0.00 0.00 0.00 10 1011.7
20260507045306 50 0.0 0.0 0.00 0.00 0.00 10 1011.6
20260507044302 50 0.0 0.0 0.00 0.00 0.00 10 1011.4
20260507043302 50 0.0 0.0 0.00 0.00 0.00 10 1011.3
20260507042306 50 0.0 0.0 0.00 0.00 0.00 10 1011.1
20260507041307 50 0.0 0.0 0.00 0.00 0.00 10 1011.1
20260507040302 50 0.0 0.0 0.00 0.00 0.00 10 1010.9
20260507035305 50 0.0 0.0 0.00 0.00 0.00 10 1010.8
20260507034302 50 0.0 0.0 0.00 0.00 0.00 10 1010.6
20260507033302 50 0.0 0.0 0.00 0.00 0.00 10 1010.8
20260507032305 50 0.0 0.0 0.00 0.00 0.00 10 1010.6
20260507031302 50 0.0 0.0 0.00 0.00 0.00 10 1010.6
20260507030302 50 0.0 0.0 0.00 0.00 0.00 10 1010.5
20260507025305 50 0.0 0.0 0.00 0.00 0.00 10 1010.5
20260507024303 50 0.0 0.0 0.00 0.00 0.00 10 1010.5
20260507023307 50 0.0 0.0 0.00 0.00 0.00 10 1010.4
20260507021304 50 0.0 0.0 0.00 0.00 0.00 10 1010.3
20260507020302 50 0.0 0.0 0.00 0.00 0.00 10 1010.2
20260507015306 51 0.0 0.0 0.00 0.00 0.00 10 1010.0
20260507014303 51 0.0 0.0 0.00 0.00 0.00 10 1010.0
20260507013307 51 0.0 0.0 0.00 0.00 0.00 10 1009.9
20260507012306 51 0.0 0.0 0.00 0.00 0.00 10 1009.8
20260507011302 52 0.0 0.0 0.00 0.00 0.00 10 1009.8
20260507010302 52 0.0 0.0 0.00 0.00 0.00 10 1009.8
20260507005305 52 0.0 0.0 0.00 0.00 0.00 10 1009.8
20260507004303 52 0.0 0.0 0.00 0.00 0.00 10 1009.6
20260507003305 52 0.0 0.0 0.00 0.00 0.00 10 1009.5
20260507002305 52 0.0 0.0 0.00 0.00 0.00 10 1009.4
20260507001302 53 0.0 0.0 0.00 0.00 0.00 10 1009.4
20260507000302 53 0.0 0.0 0.00 0.00 0.00 10 1009.5
20260506235306 53 0.0 0.0 0.00 0.00 0.00 10 1009.5
20260506234307 54 0.0 0.0 0.00 0.00 0.00 10 1009.4
20260506233302 54 0.0 0.0 0.00 0.00 0.00 10 1009.3
20260506232306 54 0.0 0.0 0.00 0.00 0.00 10 1009.2
20260506231302 54 0.0 0.0 0.00 0.00 0.00 10 1009.3
20260506230302 55 0.0 0.0 0.00 0.00 0.00 10 1009.2
20260506225307 55 0.0 0.0 0.00 0.00 0.00 10 1009.0
20260506224302 55 0.0 0.0 0.00 0.00 0.00 10 1009.1
20260506223302 55 0.0 0.0 0.00 0.00 0.00 10 1009.1
20260506222305 55 0.0 0.0 0.00 0.00 0.00 10 1009.1
20260506221302 55 0.0 0.0 0.00 0.00 0.00 10 1009.0
20260506220302 55 0.0 0.0 0.00 0.00 0.00 10 1008.9
20260506215305 55 0.0 0.0 0.00 0.00 0.00 10 1009.0
20260506214302 55 0.0 0.0 0.00 0.00 0.00 10 1008.9
20260506213302 54 0.0 0.0 0.00 0.00 0.00 10 1008.9
20260506212305 55 0.0 0.0 0.00 0.00 0.00 10 1009.0
20260506211302 54 0.0 0.0 0.00 0.00 0.00 10 1009.0
20260506210302 55 0.0 0.0 0.00 0.00 0.00 10 1008.8
20260506205305 55 0.0 0.0 0.00 0.00 0.00 10 1008.7
20260506203303 55 0.0 0.0 0.00 0.00 0.00 10 1008.8
20260506202305 55 0.0 0.0 0.00 0.00 0.00 10 1008.8
20260506201302 55 0.0 0.0 0.00 0.00 0.00 10 1008.7
20260506200302 55 0.0 0.0 0.00 0.00 0.00 10 1008.5
20260506195305 55 0.0 0.0 0.00 0.00 0.00 10 1008.3
20260506194302 55 0.0 0.0 0.00 0.00 0.00 10 1008.3
20260506193302 55 0.0 0.0 0.00 0.00 0.00 10 1008.0
20260506192305 55 0.0 0.0 0.00 0.00 0.00 10 1008.1
20260506191303 55 0.0 0.0 0.00 0.00 0.00 99 1007.8
20260506190302 55 0.0 0.0 0.00 0.00 0.00 96 1007.7
20260506185307 56 0.0 0.0 0.00 0.00 0.00 98 1007.4
20260506184302 56 0.0 0.0 0.00 0.00 0.00 99 1007.4
20260506183302 56 0.0 0.0 0.00 0.00 0.00 10 1007.1
20260506182308 55 0.0 0.0 0.00 0.00 0.00 99 1006.9
20260506181302 56 0.0 0.0 0.00 0.00 0.00 97 1006.6
20260506180302 56 0.0 0.0 0.00 0.00 0.00 95 1006.5
20260506175305 56 0.0 0.0 0.00 0.00 0.00 96 1006.3
20260506174302 56 0.0 0.0 0.00 0.00 0.00 93 1006.2
20260506173307 56 0.0 0.0 0.00 0.00 0.00 90 1006.1
20260506172306 57 0.0 0.0 0.00 0.00 0.00 84 1006.3
20260506171307 58 0.0 0.0 0.00 0.00 0.00 84 1006.4
20260506170302 58 0.0 0.0 0.00 0.00 0.00 86 1006.4
20260506165305 59 0.0 0.0 0.00 0.00 0.00 87 1006.3
20260506164303 59 0.0 0.0 0.00 0.00 0.00 89 1006.1
20260506163307 60 0.0 0.0 0.00 0.00 0.00 86 1006.2
20260506162307 60 0.0 0.0 0.00 0.00 0.00 77 1005.9
20260506161304 63 0.0 0.0 0.00 0.00 0.00 71 1005.7
20260506160302 66 0.0 0.0 0.00 0.00 0.00 57 1005.3
20260506155305 67 0.0 0.0 0.00 0.00 0.00 56 1005.1
20260506154302 67 0.0 0.0 0.00 0.00 0.00 52 1005.1
20260506153302 68 0.0 0.0 0.00 0.00 0.00 52 1005.0
20260506152305 69 0.0 0.0 0.00 0.00 0.00 50 1005.0
20260506151307 69 0.0 0.0 0.00 0.00 0.00 53 1005.1
20260506150304 67 0.0 0.0 0.00 0.00 0.00 54 1005.4
20260506145305 67 0.0 0.0 0.00 0.00 0.00 57 1005.4
20260506144302 67 0.0 0.0 0.00 0.00 0.00 56 1005.5
20260506143302 68 0.0 0.0 0.00 0.00 0.00 55 1005.3
20260506142305 68 0.0 0.0 0.00 0.00 0.00 51 1005.3
20260506141306 68 0.0 0.0 0.00 0.00 0.00 54 1005.4
20260506140304 68 0.0 0.0 0.00 0.00 0.00 53 1005.5
20260506135305 68 0.0 0.0 0.00 0.00 0.00 53 1005.3
20260506134302 68 0.0 0.0 0.00 0.00 0.00 55 1005.5
20260506133302 67 0.0 0.0 0.00 0.00 0.00 57 1005.6
20260506132305 68 0.0 0.0 0.00 0.00 0.00 55 1005.6
20260506131302 66 0.0 0.0 0.00 0.00 0.00 59 1005.7
20260506130302 67 0.0 0.0 0.00 0.00 0.00 58 1005.8
20260506125305 68 0.0 0.0 0.00 0.00 0.00 56 1005.6
20260506124307 68 0.0 0.0 0.00 0.00 0.00 53 1005.7
20260506123302 68 0.0 0.0 0.00 0.00 0.00 54 1005.6
20260506122305 68 0.0 0.0 0.00 0.00 0.00 53 1005.8
20260506121302 67 0.0 0.0 0.00 0.00 0.00 54 1005.8
20260506120303 66 0.0 0.0 0.00 0.00 0.00 58 1005.8
20260506115306 65 0.0 0.0 0.00 0.00 0.00 61 1006.0
20260506114303 65 0.0 0.0 0.00 0.00 0.00 57 1005.9
20260506113302 66 0.0 0.0 0.00 0.00 0.00 58 1005.9
20260506112305 66 0.0 0.0 0.00 0.00 0.00 60 1005.9
20260506111302 65 0.0 0.0 0.00 0.00 0.00 60 1006.0
20260506110302 65 0.0 0.0 0.00 0.00 0.00 59 1006.0
20260506105307 66 0.0 0.0 0.00 0.00 0.00 61 1006.2
20260506104312 65 0.0 0.0 0.00 0.00 0.00 59 1006.2
20260506103302 63 0.0 0.0 0.00 0.00 0.00 67 1006.5
20260506102305 63 0.0 0.0 0.00 0.00 0.00 67 1006.7
20260506101302 63 0.0 0.0 0.00 0.00 0.00 68 1006.6
20260506100302 64 0.0 0.0 0.00 0.00 0.00 65 1006.5
20260506095313 63 0.0 0.0 0.00 0.00 0.00 66 1006.4
20260506094302 62 0.0 0.0 0.00 0.00 0.00 68 1006.4
20260506093302 62 0.0 0.0 0.00 0.00 0.00 68 1006.3
20260506092305 63 0.0 0.0 0.00 0.00 0.00 71 1006.3
20260506091302 63 0.0 0.0 0.00 0.00 0.00 70 1006.2
20260506090302 62 0.0 0.0 0.00 0.00 0.00 71 1006.2
20260506085305 61 0.0 0.0 0.00 0.00 0.00 76 1006.1
20260506084302 61 0.0 0.0 0.00 0.00 0.00 75 1006.1
20260506083312 62 0.0 0.0 0.00 0.00 0.00 74 1006.0
20260506082304 61 0.0 0.0 0.00 0.00 0.00 78 1006.0